{"data":{"norad_id":62775,"intl_designator":"2025-015T","name":"STARLINK-33576","alt_names":[],"object_type":"PAYLOAD","status":"ACTIVE","operator":null,"country":"US","launch_date":"2025-01-21","launch_site_code":"AFWTR","launch_vehicle":null,"mission":null,"orbit_class":"UNKNOWN","rcs_meters":null,"size_class":null,"mass_kg":null,"dimensions":null,"purposes":["comms"],"wikipedia_slug":null,"has_3d_model":false,"image_url":null,"decayed_at":null,"tle_current":{"epoch":"2026-09-21T20:28:10.225632Z","epoch_age_seconds":54446,"freshness":"FRESH","line1":"1 62775U 25015T   26264.85289613  .00012210  00000+0  37188-3 0  9997","line2":"2 62775  53.1585 127.1089 0001541 113.2802 246.8363 15.34404298 94513","mean_motion":15.34404298,"eccentricity":0.0001541,"inclination_deg":53.1585,"raan_deg":127.1089,"arg_perigee_deg":113.2802,"mean_anomaly_deg":246.8363,"bstar":0.00037188,"rev_number":9451,"period_min":93.847495205595,"perigee_km":461.6362941627,"apogee_km":463.74463718762,"semimajor_km":6840.8274656752,"source":"CELESTRAK","updated_at":"2026-09-22T09:00:49.664080Z"}}}